Torna al catalogo

STARLINK-36627

AttivoComunicazioniVLEO
NORAD 67635·PAYLOAD·🇺🇸 United States

Lanciato Jan 30, 2026 da Cape Canaveral Space Force Station

Loading…

Prossimi Passaggi (prossime 24 ore)

TLE

AggiornatoSource: CelesTrak SupGP

Epoca: Sep 14, 2026, 22:29 UTC

1 67635C 26020U   26257.93729167 -.00034663  00000+0 -12555-2 0  2573
2 67635  43.0008 150.8902 0001390 269.1016 246.9036 15.27594661    14

Traccia STARLINK-36627 in tempo reale con AllMySat

Download on the App Store